Location: Chinna Viriv?da
(16.5281°N, 81.0493°E)
Time: 01:02:11
(UTC+00:00)

SL-19 R/B - Pass Details

Date: 14 April 2026
Orbit: 796 x 1007 km, 99.5° (Epoch: 9 May)

Event Time Altitude Azimuth Distance (km) Brightness Sun altitude
Exits shadow 13:38:07 - 150° (SSE) 2,890 6.6 -11.9°
Reaches altitude 10° 13:39:30 10° 146° (SSE) 2,359 6.1 -12.2°
Maximum altitude 13:44:24 45° 74° (ENE) 1,069 4.4 -13.3°
Drops below altitude 10° 13:49:22 10° 3° (N) 2,386 6.7 -14.5°
Sets 13:51:48 0° 357° (N) 3,336 7.6 -15.0°
